Year,Month,Day,Hour,Minute,Value (Times are PST for temperature in C)
2009,10,11,12,20,11.80
2009,10,11,12,21,11.80
2009,10,11,12,22,11.80
2009,10,11,12,23,11.80
2009,10,11,12,24,11.80
2009,10,11,12,25,11.80
2009,10,11,12,26,11.80
2009,10,11,12,27,11.90
2009,10,11,12,28,11.90
2009,10,11,12,29,11.90
2009,10,11,12,30,12.00
2009,10,11,12,31,12.00
2009,10,11,12,32,12.10
2009,10,11,12,33,12.10
2009,10,11,12,34,12.20
2009,10,11,12,35,12.30
2009,10,11,12,36,12.40
2009,10,11,12,37,12.40
2009,10,11,12,38,12.50
2009,10,11,12,39,12.50
2009,10,11,12,40,12.60
2009,10,11,12,41,12.70
2009,10,11,12,42,12.80
2009,10,11,12,43,12.70
2009,10,11,12,44,12.70
2009,10,11,12,45,12.80
2009,10,11,12,46,12.80
2009,10,11,12,47,12.80
2009,10,11,12,48,12.80
2009,10,11,12,49,12.80
2009,10,11,12,50,12.90
2009,10,11,12,51,12.90
2009,10,11,12,52,12.90
2009,10,11,12,53,13.00
2009,10,11,12,54,13.00
2009,10,11,12,55,13.10
2009,10,11,12,56,13.10
2009,10,11,12,57,13.20
2009,10,11,12,58,13.20
2009,10,11,12,59,13.20
2009,10,11,13,00,13.20
2009,10,11,13,01,13.20
2009,10,11,13,02,13.20
2009,10,11,13,03,13.30
2009,10,11,13,04,13.30
2009,10,11,13,05,13.30
2009,10,11,13,06,13.30
2009,10,11,13,07,13.30
2009,10,11,13,08,13.30
2009,10,11,13,09,13.40
2009,10,11,13,10,13.40
2009,10,11,13,11,13.40
2009,10,11,13,12,13.40
2009,10,11,13,13,13.30
2009,10,11,13,14,13.30
2009,10,11,13,15,13.30
2009,10,11,13,16,13.30
2009,10,11,13,17,13.30
2009,10,11,13,18,13.30
2009,10,11,13,19,13.30
2009,10,11,13,20,13.20
2009,10,11,13,21,13.20
2009,10,11,13,22,13.10
2009,10,11,13,23,13.10
2009,10,11,13,24,13.10
2009,10,11,13,25,13.10
2009,10,11,13,26,13.10
2009,10,11,13,27,13.10
2009,10,11,13,28,13.10
2009,10,11,13,29,13.10
2009,10,11,13,30,13.20
2009,10,11,13,31,13.20
2009,10,11,13,32,13.20
2009,10,11,13,33,13.20
2009,10,11,13,34,13.10
2009,10,11,13,35,13.10
2009,10,11,13,36,13.10
2009,10,11,13,37,13.10
2009,10,11,13,38,13.10
2009,10,11,13,39,13.00
2009,10,11,13,40,12.90
2009,10,11,13,41,12.90
2009,10,11,13,42,12.80
2009,10,11,13,43,12.80
2009,10,11,13,44,12.80
2009,10,11,13,45,12.80
2009,10,11,13,46,12.80
2009,10,11,13,47,12.80
2009,10,11,13,48,12.80
2009,10,11,13,49,12.70
2009,10,11,13,50,12.70
2009,10,11,13,51,12.70
2009,10,11,13,52,12.70
2009,10,11,13,53,12.60
2009,10,11,13,54,12.60
2009,10,11,13,55,12.50
2009,10,11,13,56,12.50
2009,10,11,13,57,12.40
2009,10,11,13,58,12.40
2009,10,11,13,59,12.30
2009,10,11,14,00,12.30
2009,10,11,14,01,12.30
2009,10,11,14,02,12.20
2009,10,11,14,03,12.20
2009,10,11,14,04,12.20
2009,10,11,14,05,12.10
2009,10,11,14,06,12.10
2009,10,11,14,07,12.00
2009,10,11,14,08,12.00
2009,10,11,14,09,11.90
2009,10,11,14,10,11.90
2009,10,11,14,11,11.90
2009,10,11,14,12,11.90
2009,10,11,14,13,11.80
2009,10,11,14,14,11.80
2009,10,11,14,15,11.80
2009,10,11,14,16,11.80
2009,10,11,14,17,11.80
2009,10,11,14,18,11.80
2009,10,11,14,19,11.80
2009,10,11,14,20,11.80
2009,10,11,14,21,11.80
2009,10,11,14,22,11.80
2009,10,11,14,23,11.80
2009,10,11,14,24,11.70
2009,10,11,14,25,11.70
2009,10,11,14,26,11.70
2009,10,11,14,27,11.70
2009,10,11,14,28,11.70
2009,10,11,14,29,11.70
2009,10,11,14,30,11.70
2009,10,11,14,31,11.70
2009,10,11,14,32,11.70
2009,10,11,14,33,11.70
2009,10,11,14,34,11.70
2009,10,11,14,35,11.70
2009,10,11,14,36,11.70
2009,10,11,14,37,11.70
2009,10,11,14,38,11.70
2009,10,11,14,39,11.70
2009,10,11,14,40,11.70
2009,10,11,14,41,11.70
2009,10,11,14,42,11.70
2009,10,11,14,43,11.70
2009,10,11,14,44,11.70
2009,10,11,14,45,11.70
2009,10,11,14,46,11.70
2009,10,11,14,47,11.70
2009,10,11,14,48,11.70
2009,10,11,14,49,11.70
2009,10,11,14,50,11.70
2009,10,11,14,51,11.70
2009,10,11,14,52,11.70
2009,10,11,14,53,11.70
2009,10,11,14,54,11.80
2009,10,11,14,55,11.80
2009,10,11,14,56,11.80
2009,10,11,14,57,11.80
2009,10,11,14,58,11.80
2009,10,11,14,59,11.80
2009,10,11,15,00,11.70
2009,10,11,15,01,11.70
2009,10,11,15,02,11.70
2009,10,11,15,03,11.70
2009,10,11,15,04,11.70
2009,10,11,15,05,11.70
2009,10,11,15,06,11.70
2009,10,11,15,07,11.60
2009,10,11,15,08,11.60
2009,10,11,15,09,11.60
2009,10,11,15,10,11.60
2009,10,11,15,11,11.60
2009,10,11,15,12,11.60
2009,10,11,15,13,11.60
2009,10,11,15,14,11.60
2009,10,11,15,15,11.60
2009,10,11,15,16,11.60
2009,10,11,15,17,11.60
2009,10,11,15,18,11.60
2009,10,11,15,19,11.60
2009,10,11,15,20,11.50
2009,10,11,15,21,11.50
2009,10,11,15,22,11.50
2009,10,11,15,23,11.50
2009,10,11,15,24,11.50
2009,10,11,15,25,11.50
2009,10,11,15,26,11.50
2009,10,11,15,27,11.50
2009,10,11,15,28,11.50
2009,10,11,15,29,11.50
2009,10,11,15,30,11.50
2009,10,11,15,31,11.50
2009,10,11,15,32,11.50
2009,10,11,15,33,11.50
2009,10,11,15,34,11.50
2009,10,11,15,35,11.50
2009,10,11,15,36,11.60
2009,10,11,15,37,11.60
2009,10,11,15,38,11.60
2009,10,11,15,39,11.60
2009,10,11,15,40,11.60
2009,10,11,15,41,11.60
2009,10,11,15,42,11.60
2009,10,11,15,43,11.60
2009,10,11,15,44,11.60
2009,10,11,15,45,11.60
2009,10,11,15,46,11.60
2009,10,11,15,47,11.60
2009,10,11,15,48,11.60
2009,10,11,15,49,11.60
2009,10,11,15,50,11.60
2009,10,11,15,51,11.60
2009,10,11,15,52,11.60
2009,10,11,15,53,11.50
2009,10,11,15,54,11.50
2009,10,11,15,55,11.50
2009,10,11,15,56,11.40
2009,10,11,15,57,11.40
2009,10,11,15,58,11.40
2009,10,11,15,59,11.40
2009,10,11,16,00,11.30
2009,10,11,16,01,11.30
2009,10,11,16,02,11.30
2009,10,11,16,03,11.30
2009,10,11,16,04,11.30
2009,10,11,16,05,11.30
2009,10,11,16,06,11.30
2009,10,11,16,07,11.30
2009,10,11,16,08,11.20
2009,10,11,16,09,11.20
2009,10,11,16,10,11.20
2009,10,11,16,11,11.20
2009,10,11,16,12,11.20
2009,10,11,16,13,11.20
2009,10,11,16,14,11.10
2009,10,11,16,15,11.10
2009,10,11,16,16,11.10
2009,10,11,16,17,11.10
2009,10,11,16,18,11.00
2009,10,11,16,19,11.00
2009,10,11,16,20,11.00
2009,10,11,16,21,10.90
2009,10,11,16,22,10.90
2009,10,11,16,23,10.90
2009,10,11,16,24,10.90
2009,10,11,16,25,10.90
2009,10,11,16,26,10.90
2009,10,11,16,27,10.90
2009,10,11,16,28,10.90
2009,10,11,16,29,10.80
2009,10,11,16,30,10.80
2009,10,11,16,31,10.80
2009,10,11,16,32,10.80
2009,10,11,16,33,10.80
2009,10,11,16,34,10.80
2009,10,11,16,35,10.80
2009,10,11,16,36,10.80
2009,10,11,16,37,10.80
2009,10,11,16,38,10.80
2009,10,11,16,39,10.70
2009,10,11,16,40,10.70
2009,10,11,16,41,10.70
2009,10,11,16,42,10.70
2009,10,11,16,43,10.70
2009,10,11,16,44,10.70
2009,10,11,16,45,10.70
2009,10,11,16,46,10.60
2009,10,11,16,47,10.60
2009,10,11,16,48,10.60
2009,10,11,16,49,10.60
2009,10,11,16,50,10.60
2009,10,11,16,51,10.60
2009,10,11,16,52,10.60
2009,10,11,16,53,10.60
2009,10,11,16,54,10.60
2009,10,11,16,55,10.60
2009,10,11,16,56,10.60
2009,10,11,16,57,10.60
2009,10,11,16,58,10.60
2009,10,11,16,59,10.60
2009,10,11,17,00,10.60
2009,10,11,17,01,10.60
2009,10,11,17,02,10.60
2009,10,11,17,03,10.60
2009,10,11,17,04,10.60
2009,10,11,17,05,10.60
2009,10,11,17,06,10.60
2009,10,11,17,07,10.60
2009,10,11,17,08,10.60
2009,10,11,17,09,10.60
2009,10,11,17,10,10.60
2009,10,11,17,11,10.50
2009,10,11,17,12,10.50
2009,10,11,17,13,10.50
2009,10,11,17,14,10.50
2009,10,11,17,15,10.40
2009,10,11,17,16,10.40
2009,10,11,17,17,10.40
2009,10,11,17,18,10.40
2009,10,11,17,19,10.30
2009,10,11,17,20,10.30
2009,10,11,17,21,10.30
2009,10,11,17,22,10.30
2009,10,11,17,23,10.20
2009,10,11,17,24,10.20
2009,10,11,17,25,10.20
2009,10,11,17,26,10.20
2009,10,11,17,27,10.20
2009,10,11,17,28,10.20
2009,10,11,17,29,10.10
2009,10,11,17,30,10.10
2009,10,11,17,31,10.10
2009,10,11,17,32,10.10
2009,10,11,17,33,10.10
2009,10,11,17,34,10.00
2009,10,11,17,35,10.00
2009,10,11,17,36,10.00
2009,10,11,17,37,9.90
2009,10,11,17,38,9.90
2009,10,11,17,39,9.90
2009,10,11,17,40,9.90
2009,10,11,17,41,9.90
2009,10,11,17,42,9.80
2009,10,11,17,43,9.80
2009,10,11,17,44,9.80
2009,10,11,17,45,9.80
2009,10,11,17,46,9.80
2009,10,11,17,47,9.80
2009,10,11,17,48,9.80
2009,10,11,17,49,9.80
2009,10,11,17,50,9.70
2009,10,11,17,51,9.70
2009,10,11,17,52,9.70
2009,10,11,17,53,9.70
2009,10,11,17,54,9.60
2009,10,11,17,55,9.60
2009,10,11,17,56,9.60
2009,10,11,17,57,9.50
2009,10,11,17,58,9.50
2009,10,11,17,59,9.40
2009,10,11,18,00,9.40
2009,10,11,18,01,9.40
2009,10,11,18,02,9.30
2009,10,11,18,03,9.30
2009,10,11,18,04,9.30
2009,10,11,18,05,9.30
2009,10,11,18,06,9.20
2009,10,11,18,07,9.20
2009,10,11,18,08,9.20
2009,10,11,18,09,9.10
2009,10,11,18,10,9.10
2009,10,11,18,11,9.10
2009,10,11,18,12,9.00
2009,10,11,18,13,9.00
2009,10,11,18,14,8.90
2009,10,11,18,15,8.90
2009,10,11,18,16,8.90
2009,10,11,18,17,8.80
2009,10,11,18,18,8.80
2009,10,11,18,19,8.80
2009,10,11,18,20,8.70
2009,10,11,18,21,8.70
2009,10,11,18,22,8.70
2009,10,11,18,23,8.70
2009,10,11,18,24,8.60
2009,10,11,18,25,8.60
2009,10,11,18,26,8.60
2009,10,11,18,27,8.60
2009,10,11,18,28,8.50
2009,10,11,18,29,8.50
2009,10,11,18,30,8.50
2009,10,11,18,31,8.40
2009,10,11,18,32,8.40
2009,10,11,18,33,8.40
2009,10,11,18,34,8.40
2009,10,11,18,35,8.30
2009,10,11,18,36,8.30
2009,10,11,18,37,8.30
2009,10,11,18,38,8.20
2009,10,11,18,39,8.20
2009,10,11,18,40,8.20
2009,10,11,18,41,8.20
2009,10,11,18,42,8.10
2009,10,11,18,43,8.10
2009,10,11,18,44,8.00
2009,10,11,18,45,8.00
2009,10,11,18,46,7.90
2009,10,11,18,47,7.90
2009,10,11,18,48,7.80
2009,10,11,18,49,7.80
2009,10,11,18,50,7.80
2009,10,11,18,51,7.70
2009,10,11,18,52,7.70
2009,10,11,18,53,7.70
2009,10,11,18,54,7.60
2009,10,11,18,55,7.60
2009,10,11,18,56,7.60
2009,10,11,18,57,7.50
2009,10,11,18,58,7.50
2009,10,11,18,59,7.50
2009,10,11,19,00,7.40
2009,10,11,19,01,7.40
2009,10,11,19,02,7.40
2009,10,11,19,03,7.40
2009,10,11,19,04,7.30
2009,10,11,19,05,7.30
2009,10,11,19,06,7.30
2009,10,11,19,07,7.30
2009,10,11,19,08,7.30
2009,10,11,19,09,7.20
2009,10,11,19,10,7.20
2009,10,11,19,11,7.20
2009,10,11,19,12,7.20
2009,10,11,19,13,7.20
2009,10,11,19,14,7.20
2009,10,11,19,15,7.20
2009,10,11,19,16,7.20
2009,10,11,19,17,7.20
2009,10,11,19,18,7.20
2009,10,11,19,19,7.20
2009,10,11,19,20,7.20
2009,10,11,19,21,7.10
2009,10,11,19,22,7.10
2009,10,11,19,23,7.10
2009,10,11,19,24,7.10
2009,10,11,19,25,7.10
2009,10,11,19,26,7.10
2009,10,11,19,27,7.10
2009,10,11,19,28,7.10
2009,10,11,19,29,7.10
2009,10,11,19,30,7.00
2009,10,11,19,31,7.00
2009,10,11,19,32,7.00
2009,10,11,19,33,7.00
2009,10,11,19,34,7.00
2009,10,11,19,35,7.00
2009,10,11,19,36,6.90
2009,10,11,19,37,6.90
2009,10,11,19,38,6.90
2009,10,11,19,39,6.90
2009,10,11,19,40,6.90
2009,10,11,19,41,6.90
2009,10,11,19,42,6.90
2009,10,11,19,43,6.90
2009,10,11,19,44,6.90
2009,10,11,19,45,6.80
2009,10,11,19,46,6.80
2009,10,11,19,47,6.80
2009,10,11,19,48,6.80
2009,10,11,19,49,6.80
2009,10,11,19,50,6.80
2009,10,11,19,51,6.80
2009,10,11,19,52,6.80
2009,10,11,19,53,6.80
2009,10,11,19,54,6.80
2009,10,11,19,55,6.80
2009,10,11,19,56,6.70
2009,10,11,19,57,6.70
2009,10,11,19,58,6.70
2009,10,11,19,59,6.70
2009,10,11,20,00,6.70
2009,10,11,20,01,6.70
2009,10,11,20,02,6.70
2009,10,11,20,03,6.70
2009,10,11,20,04,6.70
2009,10,11,20,05,6.70
2009,10,11,20,06,6.70
2009,10,11,20,07,6.70
2009,10,11,20,08,6.70
2009,10,11,20,09,6.70
2009,10,11,20,10,6.60
2009,10,11,20,11,6.60
2009,10,11,20,12,6.60
2009,10,11,20,13,6.60
2009,10,11,20,14,6.60
2009,10,11,20,15,6.60
2009,10,11,20,16,6.60
2009,10,11,20,17,6.60
2009,10,11,20,18,6.50
2009,10,11,20,19,6.50
2009,10,11,20,20,6.50
2009,10,11,20,21,6.50
2009,10,11,20,22,6.50
2009,10,11,20,23,6.50
2009,10,11,20,24,6.50
2009,10,11,20,25,6.40
2009,10,11,20,26,6.40
2009,10,11,20,27,6.40
2009,10,11,20,28,6.40
2009,10,11,20,29,6.40
2009,10,11,20,30,6.40
2009,10,11,20,31,6.40
2009,10,11,20,32,6.40
2009,10,11,20,33,6.40
2009,10,11,20,34,6.40
2009,10,11,20,35,6.40
2009,10,11,20,36,6.40
2009,10,11,20,37,6.40
2009,10,11,20,38,6.40
2009,10,11,20,39,6.40
2009,10,11,20,40,6.40
2009,10,11,20,41,6.40
2009,10,11,20,42,6.40
2009,10,11,20,43,6.40
2009,10,11,20,44,6.40
2009,10,11,20,45,6.40
2009,10,11,20,46,6.30
2009,10,11,20,47,6.30
2009,10,11,20,48,6.30
2009,10,11,20,49,6.30
2009,10,11,20,50,6.30
2009,10,11,20,51,6.30
2009,10,11,20,52,6.30
2009,10,11,20,53,6.30
2009,10,11,20,54,6.30
2009,10,11,20,55,6.30
2009,10,11,20,56,6.30
2009,10,11,20,57,6.30
2009,10,11,20,58,6.30
2009,10,11,20,59,6.30
2009,10,11,21,00,6.20
2009,10,11,21,01,6.20
2009,10,11,21,02,6.20
2009,10,11,21,03,6.20
2009,10,11,21,04,6.20
2009,10,11,21,05,6.20
2009,10,11,21,06,6.20
2009,10,11,21,07,6.20
2009,10,11,21,08,6.20
2009,10,11,21,09,6.20
2009,10,11,21,10,6.20
2009,10,11,21,11,6.10
2009,10,11,21,12,6.10
2009,10,11,21,13,6.10
2009,10,11,21,14,6.10
2009,10,11,21,15,6.10
2009,10,11,21,16,6.10
2009,10,11,21,17,6.10
2009,10,11,21,18,6.10
2009,10,11,21,19,6.10
2009,10,11,21,20,6.00
2009,10,11,21,21,6.00
2009,10,11,21,22,6.00
2009,10,11,21,23,6.00
2009,10,11,21,24,6.00
2009,10,11,21,25,6.00
2009,10,11,21,26,6.00
2009,10,11,21,27,6.00
2009,10,11,21,28,5.90
2009,10,11,21,29,5.90
2009,10,11,21,30,5.90
2009,10,11,21,31,5.90
2009,10,11,21,32,5.90
2009,10,11,21,33,5.90
2009,10,11,21,34,5.90
2009,10,11,21,35,5.90
2009,10,11,21,36,5.90
2009,10,11,21,37,5.80
2009,10,11,21,38,5.80
2009,10,11,21,39,5.80
2009,10,11,21,40,5.80
2009,10,11,21,41,5.80
2009,10,11,21,42,5.80
2009,10,11,21,43,5.80
2009,10,11,21,44,5.70
2009,10,11,21,45,5.70
2009,10,11,21,46,5.70
2009,10,11,21,47,5.70
2009,10,11,21,48,5.70
2009,10,11,21,49,5.70
2009,10,11,21,50,5.60
2009,10,11,21,51,5.60
2009,10,11,21,52,5.60
2009,10,11,21,53,5.60
2009,10,11,21,54,5.50
2009,10,11,21,55,5.50
2009,10,11,21,56,5.50
2009,10,11,21,57,5.40
2009,10,11,21,58,5.40
2009,10,11,21,59,5.40
2009,10,11,22,00,5.40
2009,10,11,22,01,5.40
2009,10,11,22,02,5.30
2009,10,11,22,03,5.30
2009,10,11,22,04,5.30
2009,10,11,22,05,5.30
2009,10,11,22,06,5.30
2009,10,11,22,07,5.30
2009,10,11,22,08,5.30
2009,10,11,22,09,5.20
2009,10,11,22,10,5.20
2009,10,11,22,11,5.20
2009,10,11,22,12,5.20
2009,10,11,22,13,5.20
2009,10,11,22,14,5.20
2009,10,11,22,15,5.20
2009,10,11,22,16,5.10
2009,10,11,22,17,5.10
2009,10,11,22,18,5.10
2009,10,11,22,19,5.10
2009,10,11,22,20,5.10
2009,10,11,22,21,5.10
2009,10,11,22,22,5.10
2009,10,11,22,23,5.10
2009,10,11,22,24,5.10
2009,10,11,22,25,5.10
2009,10,11,22,26,5.10
2009,10,11,22,27,5.10
2009,10,11,22,28,5.10
2009,10,11,22,29,5.10
2009,10,11,22,30,5.10
2009,10,11,22,31,5.10
2009,10,11,22,32,5.10
2009,10,11,22,33,5.10
2009,10,11,22,34,5.10
2009,10,11,22,35,5.10
2009,10,11,22,36,5.10
2009,10,11,22,37,5.10
2009,10,11,22,38,5.10
2009,10,11,22,39,5.10
2009,10,11,22,40,5.10
2009,10,11,22,41,5.10
2009,10,11,22,42,5.10
2009,10,11,22,43,5.10
2009,10,11,22,44,5.10
2009,10,11,22,45,5.10
2009,10,11,22,46,5.10
2009,10,11,22,47,5.10
2009,10,11,22,48,5.10
2009,10,11,22,49,5.10
2009,10,11,22,50,5.10
2009,10,11,22,51,5.10
2009,10,11,22,52,5.10
2009,10,11,22,53,5.10
2009,10,11,22,54,5.10
2009,10,11,22,55,5.00
2009,10,11,22,56,5.00
2009,10,11,22,57,5.00
2009,10,11,22,58,5.00
2009,10,11,22,59,5.00
2009,10,11,23,00,5.00
2009,10,11,23,01,5.00
2009,10,11,23,02,5.00
2009,10,11,23,03,5.00
2009,10,11,23,04,5.00
2009,10,11,23,05,5.00
2009,10,11,23,06,5.00
2009,10,11,23,07,4.90
2009,10,11,23,08,5.00
2009,10,11,23,09,4.90
2009,10,11,23,10,4.90
2009,10,11,23,11,4.90
2009,10,11,23,12,4.90
2009,10,11,23,13,4.90
2009,10,11,23,14,4.90
2009,10,11,23,15,4.90
2009,10,11,23,16,4.90
2009,10,11,23,17,4.80
2009,10,11,23,18,4.80
2009,10,11,23,19,4.80
2009,10,11,23,20,4.80
2009,10,11,23,21,4.80
2009,10,11,23,22,4.80
2009,10,11,23,23,4.80
2009,10,11,23,24,4.80
2009,10,11,23,25,4.70
2009,10,11,23,26,4.70
2009,10,11,23,27,4.70
2009,10,11,23,28,4.70
2009,10,11,23,29,4.70
2009,10,11,23,30,4.70
2009,10,11,23,31,4.60
2009,10,11,23,32,4.60
2009,10,11,23,33,4.60
2009,10,11,23,34,4.60
2009,10,11,23,35,4.60
2009,10,11,23,36,4.60
2009,10,11,23,37,4.60
2009,10,11,23,38,4.50
2009,10,11,23,39,4.50
2009,10,11,23,40,4.50
2009,10,11,23,41,4.50
2009,10,11,23,42,4.50
2009,10,11,23,43,4.50
2009,10,11,23,44,4.40
2009,10,11,23,45,4.40
2009,10,11,23,46,4.40
2009,10,11,23,47,4.40
2009,10,11,23,48,4.40
2009,10,11,23,49,4.40
2009,10,11,23,50,4.40
2009,10,11,23,51,4.40
2009,10,11,23,52,4.40
2009,10,11,23,53,4.30
2009,10,11,23,54,4.30
2009,10,11,23,55,4.30
2009,10,11,23,56,4.30
2009,10,11,23,57,4.30
2009,10,11,23,58,4.30
2009,10,11,23,59,4.30
